COSMOS 252 DEB, 3561

Orbit data source: Space-Track

COSMOS 252 DEB, 3561 is space debris in LEO originally from a launch on Fri, 01 Nov 1968 UTC launched from the Tyuratam Missile And Space Complex (TTMTR). Debris objects in space refer to the collection of defunct objects orbiting the Earth. Examples of debris include non-operational satellites, rocket bodies, and fragments generated from explosions, collisions, or faulty payload assembly.

Loading next visibility...
Identifier
3561, 1968-097P
Orbit
LEO
Country
Flag of CISCIS
Related business
Manufacturer
Unknown
Mission
Spacecraft
Bus & Motor
Unknown
Mass
Unknown
Launch date (UTC)
1968-11-01 (58 years ago)
Launch vehicle
Unknown
Launch site
Tyuratam Missile And Space Complex (TTMTR)
Object type
Payload
Rocket body
Debris
Shape & HBR
Unknown shape, 0.4 m
Radar Cross Section
Medium (>0.1 m² and <1 m²)

Expand to show TLE details & history
Last TLE update: 11 hours ago

TLE from 11 hours ago
0 COSMOS 252 DEB
1 03561U 68097P   26165.34267006  .00003203  00000-0  50894-3 0  9990
2 03561  62.2689  39.0883 0359310 316.7670  40.5693 14.38993027840816
Epoch: 2026-06-14T08:13Z
TLE epoch observation values (Epoch: 2026-06-14T08:13:26.693Z)
Latitude
0.00007°
Longitude
13.08234°
Altitude
572.751 km
Speed
7.676 km/s
True Right ascension
02h 36m 21s
True Declination
0° 00' 00"
Sunlit
Object was in daylight at epoch
Visualization orbit readout
Latitude
Unknown
Longitude
Unknown
Altitude
Unknown
Speed
Unknown
Apparent Right ascension
Unknown
Apparent Declination
Unknown
Sunlit
N/A
Visualization observer readout
Local Sidereal Time
06:04:47
Azimuth
Unknown
Elevation
Unknown
Doppler factor
Unknown
Orbital elements
Apogee altitude
1,017.256 km
Perigee altitude
504.242 km
Semi-major axis
7,138.886 km
Eccentricity
0.03593
Inclination
62.2689°
RAAN
39.0883°
Arg. of periapsis
316.767°
True anomaly
43.34048°
Mean anomaly
40.5693°
Eccentric anomaly
41.94538°
Mean motion
3.5983 °/min
Orbital period
100.05 mins
BSTAR
0.00050894

Documentation

Showing up to 5 results
|